| time (UTC) | temp F | wind direction | speed MPH | gust MPH | rain 1hr in | rain 24hr in | rain mn in | humidity % | barometer mb |
| 20260904171514 | 51 | 122 | 0.0 | 0.0 | 0.00 | 0.00 | 0.00 | 79 | 1012.7 |
| 20260904171010 | 51 | 122 | 0.0 | 0.0 | 0.00 | 0.00 | 0.00 | 79 | 1012.7 |
| 20260904170505 | 51 | 104 | 0.0 | 0.0 | 0.00 | 0.00 | 0.00 | 81 | 1012.7 |
| 20260904170001 | 48 | 81 | 0.0 | 1.0 | 0.00 | 0.00 | 0.00 | 84 | 1012.4 |
| 20260904165459 | 48 | 110 | 0.0 | 0.0 | 0.00 | 0.00 | 0.00 | 85 | 1012.5 |
| 20260904164959 | 49 | 124 | 0.0 | 0.0 | 0.00 | 0.00 | 0.00 | 84 | 1012.4 |
| 20260904164453 | 49 | 104 | 0.0 | 0.0 | 0.00 | 0.00 | 0.00 | 84 | 1012.3 |
| 20260904163438 | 48 | 98 | 0.0 | 0.0 | 0.00 | 0.00 | 0.00 | 86 | 1012.2 |
| 20260904162938 | 48 | 98 | 0.0 | 0.0 | 0.00 | 0.00 | 0.00 | 86 | 1012.2 |
| 20260904162433 | 48 | 60 | 1.0 | 2.0 | 0.00 | 0.00 | 0.00 | 86 | 1012.3 |
| 20260904161928 | 49 | 138 | 0.0 | 1.0 | 0.00 | 0.00 | 0.00 | 88 | 1012.4 |
| 20260904161424 | 47 | 104 | 1.0 | 1.0 | 0.00 | 0.00 | 0.00 | 91 | 1012.1 |
| 20260904160920 | 46 | 242 | 2.0 | 2.0 | 0.00 | 0.00 | 0.00 | 93 | 1012.0 |
| 20260904160414 | 46 | 134 | 1.0 | 2.0 | 0.00 | 0.00 | 0.00 | 96 | 1012.4 |
| 20260904155909 | 46 | 144 | 1.0 | 1.0 | 0.00 | 0.00 | 0.00 | 97 | 1012.2 |
| 20260904155404 | 45 | 200 | 1.0 | 2.0 | 0.00 | 0.00 | 0.00 | 98 | 1012.0 |
| 20260904154903 | 45 | 80 | 0.0 | 1.0 | 0.00 | 0.00 | 0.00 | 99 | 1012.0 |
| 20260904154357 | 45 | 177 | 1.0 | 2.0 | 0.00 | 0.00 | 0.00 | 99 | 1012.2 |
| 20260904153853 | 45 | 87 | 2.0 | 2.0 | 0.00 | 0.00 | 0.00 | 99 | 1012.1 |
| 20260904153348 | 45 | 17 | 1.0 | 3.0 | 0.00 | 0.00 | 0.00 | 99 | 1012.0 |
| 20260904152845 | 44 | 64 | 1.0 | 1.0 | 0.00 | 0.00 | 0.00 | 99 | 1012.1 |
| 20260904152344 | 44 | 125 | 2.0 | 2.0 | 0.00 | 0.00 | 0.00 | 99 | 1012.1 |
| 20260904151838 | 44 | 201 | 2.0 | 2.0 | 0.00 | 0.00 | 0.00 | 99 | 1012.1 |
| 20260904151338 | 44 | 58 | 3.0 | 3.0 | 0.00 | 0.00 | 0.00 | 99 | 1012.0 |
| 20260904150834 | 44 | 305 | 2.0 | 2.0 | 0.00 | 0.00 | 0.00 | 99 | 1011.9 |
| 20260904150329 | 43 | 131 | 0.0 | 0.0 | 0.00 | 0.00 | 0.00 | 99 | 1011.9 |
| 20260904145826 | 43 | 102 | 1.0 | 2.0 | 0.00 | 0.00 | 0.00 | 99 | 1011.9 |
| 20260904145323 | 43 | 95 | 1.0 | 1.0 | 0.00 | 0.00 | 0.00 | 99 | 1012.1 |
| 20260904144819 | 43 | 44 | 2.0 | 2.0 | 0.00 | 0.00 | 0.00 | 99 | 1011.9 |
| 20260904144314 | 43 | 111 | 1.0 | 1.0 | 0.00 | 0.00 | 0.00 | 99 | 1011.9 |
| 20260904143809 | 43 | 134 | 0.0 | 1.0 | 0.00 | 0.00 | 0.00 | 99 | 1011.9 |
| 20260904143306 | 43 | 98 | 0.0 | 0.0 | 0.00 | 0.00 | 0.00 | 99 | 1011.8 |
| 20260904142802 | 42 | 128 | 0.0 | 1.0 | 0.00 | 0.00 | 0.00 | 99 | 1012.1 |
| 20260904142257 | 43 | 94 | 1.0 | 1.0 | 0.00 | 0.00 | 0.00 | 99 | 1011.9 |
| 20260904141752 | 43 | 71 | 1.0 | 1.0 | 0.00 | 0.00 | 0.00 | 99 | 1011.8 |
| 20260904141248 | 43 | 139 | 0.0 | 0.0 | 0.00 | 0.00 | 0.00 | 99 | 1011.4 |
| 20260904140743 | 43 | 114 | 0.0 | 0.0 | 0.00 | 0.00 | 0.00 | 99 | 1011.4 |
| 20260904140238 | 43 | 144 | 0.0 | 0.0 | 0.00 | 0.00 | 0.00 | 99 | 1011.6 |
| 20260904135737 | 42 | 91 | 0.0 | 0.0 | 0.00 | 0.00 | 0.00 | 99 | 1011.4 |
| 20260904135232 | 43 | 120 | 0.0 | 0.0 | 0.00 | 0.00 | 0.00 | 99 | 1011.0 |
| 20260904134729 | 42 | 117 | 0.0 | 0.0 | 0.00 | 0.00 | 0.00 | 99 | 1011.2 |
| 20260904134228 | 43 | 107 | 0.0 | 0.0 | 0.00 | 0.00 | 0.00 | 99 | 1011.1 |
| 20260904133722 | 42 | 109 | 1.0 | 1.0 | 0.00 | 0.00 | 0.00 | 99 | 1010.9 |
| 20260904133220 | 43 | 65 | 2.0 | 2.0 | 0.00 | 0.00 | 0.00 | 99 | 1011.0 |
| 20260904132718 | 43 | 121 | 0.0 | 0.0 | 0.00 | 0.00 | 0.00 | 99 | 1011.0 |
| 20260904132214 | 42 | 118 | 0.0 | 0.0 | 0.00 | 0.00 | 0.00 | 99 | 1010.8 |
| 20260904131713 | 43 | 121 | 0.0 | 0.0 | 0.00 | 0.00 | 0.00 | 99 | 1010.9 |
| 20260904131209 | 42 | 101 | 1.0 | 1.0 | 0.00 | 0.00 | 0.00 | 99 | 1010.7 |
| 20260904130703 | 42 | 119 | 0.0 | 0.0 | 0.00 | 0.00 | 0.00 | 99 | 1010.6 |
| 20260904130202 | 42 | 122 | 0.0 | 0.0 | 0.00 | 0.00 | 0.00 | 99 | 1010.8 |
| 20260904125659 | 42 | 120 | 0.0 | 0.0 | 0.00 | 0.00 | 0.00 | 99 | 1010.7 |
| 20260904125154 | 42 | 118 | 0.0 | 0.0 | 0.00 | 0.00 | 0.00 | 99 | 1010.5 |
| 20260904124649 | 42 | 117 | 1.0 | 1.0 | 0.00 | 0.00 | 0.00 | 99 | 1010.5 |
| 20260904124145 | 42 | 108 | 0.0 | 0.0 | 0.00 | 0.00 | 0.00 | 99 | 1010.6 |
| 20260904123644 | 42 | 94 | 0.0 | 1.0 | 0.00 | 0.00 | 0.00 | 99 | 1010.3 |
| 20260904123140 | 43 | 70 | 0.0 | 1.0 | 0.00 | 0.00 | 0.00 | 99 | 1010.3 |
| 20260904122635 | 43 | 117 | 0.0 | 0.0 | 0.00 | 0.00 | 0.00 | 99 | 1010.6 |
| 20260904122130 | 43 | 124 | 0.0 | 0.0 | 0.00 | 0.00 | 0.00 | 99 | 1010.4 |
| 20260904121625 | 43 | 106 | 0.0 | 1.0 | 0.00 | 0.00 | 0.00 | 99 | 1010.3 |
| 20260904121121 | 43 | 77 | 0.0 | 0.0 | 0.00 | 0.00 | 0.00 | 99 | 1010.0 |
| 20260904120617 | 43 | 130 | 0.0 | 0.0 | 0.00 | 0.00 | 0.00 | 99 | 1010.3 |
| 20260904120113 | 43 | 154 | 0.0 | 0.0 | 0.00 | 0.00 | 0.00 | 99 | 1010.3 |
| 20260904115608 | 43 | 117 | 0.0 | 0.0 | 0.00 | 0.00 | 0.00 | 99 | 1010.0 |
| 20260904115103 | 43 | 110 | 0.0 | 1.0 | 0.00 | 0.00 | 0.00 | 99 | 1010.0 |
| 20260904114602 | 43 | 111 | 0.0 | 0.0 | 0.00 | 0.00 | 0.00 | 99 | 1010.3 |
| 20260904114057 | 43 | 119 | 0.0 | 0.0 | 0.00 | 0.00 | 0.00 | 99 | 1010.1 |
| 20260904113556 | 43 | 119 | 0.0 | 0.0 | 0.00 | 0.00 | 0.00 | 99 | 1009.9 |
| 20260904113051 | 43 | 119 | 0.0 | 0.0 | 0.00 | 0.00 | 0.00 | 99 | 1009.8 |
| 20260904112546 | 43 | 119 | 0.0 | 0.0 | 0.00 | 0.00 | 0.00 | 99 | 1009.8 |
| 20260904112042 | 43 | 117 | 0.0 | 0.0 | 0.00 | 0.00 | 0.00 | 99 | 1009.8 |
| 20260904111537 | 42 | 125 | 0.0 | 0.0 | 0.00 | 0.00 | 0.00 | 99 | 1009.7 |
| 20260904111032 | 43 | 143 | 0.0 | 0.0 | 0.00 | 0.00 | 0.00 | 99 | 1009.8 |
| 20260904110526 | 43 | 143 | 0.0 | 0.0 | 0.00 | 0.00 | 0.00 | 99 | 1009.8 |
| 20260904110022 | 43 | 139 | 0.0 | 0.0 | 0.00 | 0.00 | 0.00 | 99 | 1009.8 |
| 20260904105516 | 42 | 115 | 0.0 | 0.0 | 0.00 | 0.00 | 0.00 | 99 | 1010.0 |
| 20260904105012 | 42 | 120 | 0.0 | 0.0 | 0.00 | 0.00 | 0.00 | 99 | 1009.8 |
| 20260904104507 | 42 | 120 | 0.0 | 0.0 | 0.00 | 0.00 | 0.00 | 99 | 1009.8 |
| 20260904104003 | 42 | 156 | 0.0 | 0.0 | 0.00 | 0.00 | 0.00 | 99 | 1010.1 |
| 20260904103458 | 42 | 157 | 0.0 | 0.0 | 0.00 | 0.00 | 0.00 | 99 | 1009.9 |
| 20260904102954 | 42 | 157 | 0.0 | 0.0 | 0.00 | 0.00 | 0.00 | 99 | 1009.8 |
| 20260904102449 | 42 | 157 | 0.0 | 0.0 | 0.00 | 0.00 | 0.00 | 99 | 1009.7 |
| 20260904101944 | 42 | 151 | 0.0 | 0.0 | 0.00 | 0.00 | 0.00 | 99 | 1009.7 |
| 20260904101441 | 42 | 151 | 1.0 | 1.0 | 0.00 | 0.00 | 0.00 | 99 | 1009.6 |
| 20260904100931 | 42 | 129 | 0.0 | 0.0 | 0.00 | 0.00 | 0.00 | 99 | 1009.4 |
| 20260904100426 | 42 | 119 | 0.0 | 0.0 | 0.00 | 0.00 | 0.00 | 99 | 1009.7 |
| 20260904095921 | 42 | 119 | 0.0 | 0.0 | 0.00 | 0.00 | 0.00 | 99 | 1009.5 |
| 20260904095416 | 42 | 117 | 0.0 | 0.0 | 0.00 | 0.00 | 0.00 | 99 | 1009.5 |
| 20260904094911 | 42 | 109 | 0.0 | 0.0 | 0.00 | 0.00 | 0.00 | 99 | 1009.3 |
| 20260904094406 | 42 | 114 | 0.0 | 0.0 | 0.00 | 0.00 | 0.00 | 99 | 1009.4 |
| 20260904093902 | 42 | 150 | 0.0 | 0.0 | 0.00 | 0.00 | 0.00 | 99 | 1009.3 |
| 20260904093402 | 42 | 148 | 0.0 | 0.0 | 0.00 | 0.00 | 0.00 | 99 | 1009.3 |
| 20260904092857 | 42 | 147 | 0.0 | 0.0 | 0.00 | 0.00 | 0.00 | 99 | 1009.3 |
| 20260904092353 | 42 | 140 | 0.0 | 0.0 | 0.00 | 0.00 | 0.00 | 99 | 1009.6 |
| 20260904091849 | 43 | 134 | 0.0 | 0.0 | 0.00 | 0.00 | 0.00 | 99 | 1009.3 |
| 20260904091344 | 43 | 163 | 2.0 | 2.0 | 0.00 | 0.00 | 0.00 | 99 | 1009.3 |
| 20260904090839 | 43 | 103 | 0.0 | 0.0 | 0.00 | 0.00 | 0.00 | 99 | 1009.3 |
| 20260904090336 | 43 | 103 | 0.0 | 0.0 | 0.00 | 0.00 | 0.00 | 99 | 1009.3 |
| 20260904085830 | 44 | 103 | 0.0 | 0.0 | 0.00 | 0.00 | 0.00 | 99 | 1009.0 |
| 20260904085325 | 44 | 101 | 0.0 | 0.0 | 0.00 | 0.00 | 0.00 | 99 | 1008.8 |
| 20260904084820 | 44 | 116 | 0.0 | 0.0 | 0.00 | 0.00 | 0.00 | 99 | 1009.2 |
| 20260904084316 | 44 | 116 | 0.0 | 0.0 | 0.00 | 0.00 | 0.00 | 99 | 1009.0 |
| 20260904083812 | 44 | 115 | 0.0 | 0.0 | 0.00 | 0.00 | 0.00 | 99 | 1008.7 |
| 20260904083308 | 44 | 115 | 0.0 | 0.0 | 0.00 | 0.00 | 0.00 | 99 | 1009.0 |
| 20260904082803 | 45 | 106 | 0.0 | 0.0 | 0.00 | 0.00 | 0.00 | 99 | 1008.7 |
| 20260904082258 | 45 | 113 | 0.0 | 0.0 | 0.00 | 0.00 | 0.00 | 99 | 1008.7 |
| 20260904081753 | 45 | 123 | 0.0 | 0.0 | 0.00 | 0.00 | 0.00 | 99 | 1008.7 |
| 20260904081249 | 45 | 126 | 0.0 | 0.0 | 0.00 | 0.00 | 0.00 | 99 | 1008.7 |
| 20260904080744 | 45 | 126 | 0.0 | 0.0 | 0.00 | 0.00 | 0.00 | 99 | 1008.6 |
| 20260904080239 | 45 | 126 | 0.0 | 0.0 | 0.00 | 0.00 | 0.00 | 99 | 1008.7 |
| 20260904075736 | 45 | 125 | 0.0 | 0.0 | 0.00 | 0.00 | 0.00 | 99 | 1008.7 |
| 20260904075231 | 45 | 114 | 0.0 | 0.0 | 0.00 | 0.00 | 0.00 | 99 | 1008.6 |
| 20260904074730 | 46 | 152 | 0.0 | 0.0 | 0.00 | 0.00 | 0.00 | 99 | 1009.2 |
| 20260904074224 | 46 | 139 | 0.0 | 0.0 | 0.00 | 0.00 | 0.00 | 99 | 1008.8 |
| 20260904073720 | 46 | 146 | 0.0 | 0.0 | 0.00 | 0.00 | 0.00 | 99 | 1009.1 |
| 20260904073216 | 46 | 147 | 0.0 | 0.0 | 0.00 | 0.00 | 0.00 | 99 | 1008.8 |
| 20260904072711 | 46 | 174 | 1.0 | 2.0 | 0.00 | 0.00 | 0.00 | 99 | 1009.1 |
| 20260904072206 | 46 | 150 | 0.0 | 0.0 | 0.00 | 0.00 | 0.00 | 99 | 1009.1 |
| 20260904071702 | 46 | 148 | 0.0 | 1.0 | 0.00 | 0.00 | 0.00 | 99 | 1009.0 |
| 20260904071157 | 46 | 155 | 2.0 | 3.0 | 0.00 | 0.00 | 0.00 | 99 | 1009.1 |
| 20260904070656 | 46 | 153 | 2.0 | 2.0 | 0.00 | 0.00 | 0.00 | 99 | 1008.8 |
| 20260904070155 | 46 | 154 | 1.0 | 1.0 | 0.00 | 0.00 | 0.00 | 99 | 1009.1 |
| 20260904065650 | 46 | 170 | 2.0 | 2.0 | 0.00 | 0.47 | 0.47 | 99 | 1009.0 |
| 20260904065147 | 46 | 148 | 0.0 | 0.0 | 0.00 | 0.47 | 0.47 | 99 | 1008.8 |
| 20260904064642 | 46 | 114 | 0.0 | 0.0 | 0.00 | 0.47 | 0.47 | 99 | 1009.0 |
| 20260904064137 | 46 | 114 | 0.0 | 0.0 | 0.00 | 0.47 | 0.47 | 99 | 1009.0 |
| 20260904063633 | 46 | 114 | 0.0 | 0.0 | 0.00 | 0.47 | 0.47 | 99 | 1008.7 |
| 20260904063128 | 46 | 114 | 0.0 | 0.0 | 0.00 | 0.47 | 0.47 | 99 | 1008.6 |
| 20260904062624 | 46 | 114 | 0.0 | 0.0 | 0.00 | 0.47 | 0.47 | 99 | 1008.4 |
| 20260904062120 | 46 | 113 | 0.0 | 0.0 | 0.00 | 0.47 | 0.47 | 99 | 1008.5 |
| 20260904061615 | 46 | 120 | 0.0 | 0.0 | 0.00 | 0.47 | 0.47 | 99 | 1008.6 |
| 20260904061112 | 46 | 118 | 0.0 | 0.0 | 0.00 | 0.47 | 0.47 | 99 | 1008.3 |
| 20260904060608 | 46 | 120 | 0.0 | 0.0 | 0.00 | 0.47 | 0.47 | 99 | 1008.5 |
| 20260904060103 | 46 | 148 | 0.0 | 0.0 | 0.00 | 0.47 | 0.47 | 99 | 1008.5 |
| 20260904055558 | 46 | 148 | 0.0 | 0.0 | 0.00 | 0.47 | 0.47 | 98 | 1008.7 |
| 20260904055053 | 46 | 147 | 0.0 | 0.0 | 0.00 | 0.47 | 0.47 | 98 | 1008.7 |
| 20260904054549 | 46 | 142 | 0.0 | 0.0 | 0.00 | 0.47 | 0.47 | 98 | 1009.1 |
| 20260904054045 | 46 | 125 | 0.0 | 0.0 | 0.00 | 0.47 | 0.47 | 98 | 1008.8 |
| 20260904053544 | 46 | 125 | 0.0 | 0.0 | 0.00 | 0.47 | 0.47 | 98 | 1008.6 |
| 20260904053040 | 46 | 123 | 0.0 | 0.0 | 0.00 | 0.47 | 0.47 | 98 | 1008.6 |
| 20260904052536 | 46 | 120 | 0.0 | 0.0 | 0.00 | 0.47 | 0.47 | 97 | 1008.6 |
| 20260904052031 | 47 | 130 | 0.0 | 0.0 | 0.00 | 0.47 | 0.47 | 97 | 1008.6 |
| 20260904051528 | 47 | 144 | 0.0 | 0.0 | 0.05 | 0.47 | 0.47 | 97 | 1008.6 |
| 20260904051027 | 47 | 139 | 0.0 | 0.0 | 0.05 | 0.47 | 0.47 | 97 | 1008.6 |
| 20260904050523 | 46 | 138 | 0.0 | 0.0 | 0.00 | 0.46 | 0.46 | 97 | 1008.6 |
| 20260904050019 | 46 | 139 | 0.0 | 0.0 | 0.00 | 0.46 | 0.46 | 96 | 1008.7 |
| 20260904045514 | 47 | 143 | 0.0 | 0.0 | 0.00 | 0.46 | 0.46 | 96 | 1009.0 |
| 20260904045009 | 47 | 145 | 0.0 | 0.0 | 0.00 | 0.46 | 0.46 | 96 | 1009.2 |
| 20260904044504 | 47 | 146 | 0.0 | 0.0 | 0.07 | 0.46 | 0.46 | 96 | 1009.2 |
| 20260904044001 | 47 | 173 | 0.0 | 0.0 | 0.00 | 0.45 | 0.45 | 96 | 1009.3 |
| 20260904043457 | 47 | 154 | 2.0 | 2.0 | 0.05 | 0.45 | 0.45 | 96 | 1009.0 |
| 20260904042952 | 47 | 141 | 0.0 | 1.0 | 0.05 | 0.45 | 0.45 | 96 | 1009.2 |
| 20260904042448 | 47 | 135 | 0.0 | 0.0 | 0.07 | 0.44 | 0.44 | 95 | 1009.1 |
| 20260904041942 | 47 | 138 | 0.0 | 0.0 | 0.07 | 0.44 | 0.44 | 95 | 1009.3 |
| 20260904041434 | 47 | 138 | 0.0 | 0.0 | 0.05 | 0.43 | 0.43 | 95 | 1009.2 |
| 20260904040930 | 47 | 146 | 0.0 | 0.0 | 0.12 | 0.43 | 0.43 | 95 | 1009.3 |
| 20260904040429 | 47 | 141 | 0.0 | 0.0 | 0.19 | 0.42 | 0.42 | 95 | 1009.4 |
| 20260904035926 | 47 | 141 | 0.0 | 0.0 | 0.12 | 0.41 | 0.41 | 94 | 1009.3 |
| 20260904035421 | 47 | 141 | 0.0 | 0.0 | 0.12 | 0.40 | 0.40 | 94 | 1009.3 |
| 20260904034920 | 47 | 143 | 0.0 | 0.0 | 0.12 | 0.39 | 0.39 | 94 | 1009.0 |
| 20260904034416 | 47 | 144 | 0.0 | 0.0 | 0.14 | 0.38 | 0.38 | 94 | 1009.2 |
| 20260904033912 | 47 | 144 | 0.0 | 0.0 | 0.12 | 0.37 | 0.37 | 93 | 1009.3 |
| 20260904033408 | 47 | 166 | 0.0 | 0.0 | 0.12 | 0.36 | 0.36 | 94 | 1009.2 |
| 20260904032903 | 47 | 146 | 0.0 | 0.0 | 0.12 | 0.35 | 0.35 | 94 | 1009.4 |
| 20260904032358 | 48 | 259 | 2.0 | 2.0 | 0.05 | 0.34 | 0.34 | 94 | 1009.4 |
| 20260904031852 | 48 | 147 | 0.0 | 0.0 | 0.07 | 0.33 | 0.33 | 93 | 1009.3 |
| 20260904031348 | 48 | 146 | 0.0 | 0.0 | 0.12 | 0.33 | 0.33 | 93 | 1009.1 |
| 20260904030844 | 48 | 140 | 0.0 | 0.0 | 0.05 | 0.32 | 0.32 | 92 | 1009.2 |
| 20260904030339 | 48 | 140 | 0.0 | 0.0 | 0.07 | 0.31 | 0.31 | 92 | 1009.0 |
| 20260904025835 | 48 | 140 | 0.0 | 0.0 | 0.07 | 0.31 | 0.31 | 92 | 1009.1 |
| 20260904025330 | 48 | 140 | 0.0 | 0.0 | 0.05 | 0.30 | 0.30 | 91 | 1009.1 |
| 20260904024830 | 48 | 137 | 0.0 | 0.0 | 0.05 | 0.30 | 0.30 | 90 | 1009.0 |
| 20260904024325 | 48 | 142 | 0.0 | 0.0 | 0.07 | 0.29 | 0.29 | 91 | 1009.0 |
| 20260904023822 | 48 | 145 | 0.0 | 0.0 | 0.07 | 0.29 | 0.29 | 90 | 1008.7 |
| 20260904023318 | 48 | 163 | 4.0 | 4.0 | 0.05 | 0.28 | 0.28 | 90 | 1008.7 |
| 20260904022817 | 49 | 155 | 2.0 | 2.0 | 0.05 | 0.28 | 0.28 | 89 | 1009.0 |
| 20260904022314 | 49 | 165 | 1.0 | 1.0 | 0.07 | 0.27 | 0.27 | 88 | 1009.1 |
| 20260904021811 | 49 | 86 | 1.0 | 2.0 | 0.07 | 0.27 | 0.27 | 88 | 1008.8 |
| 20260904021310 | 49 | 105 | 1.0 | 1.0 | 0.05 | 0.26 | 0.26 | 88 | 1008.6 |
| 20260904020805 | 50 | 118 | 0.0 | 0.0 | 0.05 | 0.26 | 0.26 | 86 | 1008.7 |
| 20260904020301 | 50 | 83 | 1.0 | 1.0 | 0.07 | 0.25 | 0.25 | 84 | 1008.7 |
| 20260904015759 | 50 | 150 | 1.0 | 1.0 | 0.07 | 0.25 | 0.25 | 86 | 1008.5 |
| 20260904015254 | 50 | 166 | 1.0 | 1.0 | 0.07 | 0.24 | 0.24 | 84 | 1008.6 |
| 20260904014752 | 50 | 136 | 0.0 | 0.0 | 0.07 | 0.24 | 0.24 | 84 | 1008.5 |
| 20260904014248 | 51 | 147 | 0.0 | 0.0 | 0.00 | 0.23 | 0.23 | 84 | 1008.5 |
| 20260904013744 | 51 | 137 | 0.0 | 0.0 | 0.00 | 0.23 | 0.23 | 81 | 1008.4 |
| 20260904013240 | 51 | 129 | 0.0 | 0.0 | 0.05 | 0.23 | 0.23 | 78 | 1008.5 |
| 20260904012736 | 51 | 129 | 0.0 | 0.0 | 0.05 | 0.23 | 0.23 | 78 | 1008.5 |
| 20260904012235 | 51 | 147 | 0.0 | 0.0 | 0.05 | 0.23 | 0.23 | 78 | 1008.3 |
| 20260904011734 | 52 | 130 | 0.0 | 0.0 | 0.05 | 0.23 | 0.23 | 78 | 1008.3 |
| 20260904011230 | 52 | 144 | 1.0 | 1.0 | 0.00 | 0.22 | 0.22 | 78 | 1008.3 |
| 20260904010725 | 52 | 142 | 0.0 | 0.0 | 0.00 | 0.22 | 0.22 | 78 | 1008.2 |
| 20260904010221 | 53 | 146 | 0.0 | 1.0 | 0.00 | 0.22 | 0.22 | 76 | 1008.3 |
| 20260904005716 | 53 | 166 | 3.0 | 4.0 | 0.00 | 0.22 | 0.22 | 71 | 1008.3 |
| 20260904005212 | 54 | 153 | 2.0 | 3.0 | 0.00 | 0.22 | 0.22 | 71 | 1008.2 |
| 20260904004712 | 54 | 137 | 2.0 | 3.0 | 0.00 | 0.22 | 0.22 | 70 | 1008.2 |
| 20260904004208 | 54 | 171 | 3.0 | 3.0 | 0.00 | 0.22 | 0.22 | 70 | 1008.3 |
| 20260904003702 | 54 | 147 | 1.0 | 1.0 | 0.00 | 0.22 | 0.22 | 72 | 1008.2 |
| 20260904003158 | 54 | 166 | 4.0 | 6.0 | 0.00 | 0.22 | 0.22 | 71 | 1007.9 |
| 20260904002649 | 54 | 136 | 4.0 | 7.0 | 0.00 | 0.22 | 0.22 | 71 | 1008.0 |
| 20260904002143 | 54 | 136 | 3.0 | 3.0 | 0.00 | 0.22 | 0.22 | 72 | 1007.7 |
| 20260904001638 | 54 | 166 | 4.0 | 4.0 | 0.00 | 0.22 | 0.22 | 71 | 1007.7 |
| 20260904001137 | 55 | 186 | 4.0 | 4.0 | 0.00 | 0.22 | 0.22 | 70 | 1007.8 |
| 20260904000633 | 55 | 144 | 4.0 | 6.0 | 0.00 | 0.22 | 0.22 | 70 | 1007.8 |
| 20260904000129 | 55 | 151 | 2.0 | 2.0 | 0.00 | 0.22 | 0.22 | 70 | 1007.8 |
| 20260903235628 | 56 | 145 | 2.0 | 3.0 | 0.00 | 0.22 | 0.22 | 65 | 1007.9 |
| 20260903235124 | 56 | 165 | 3.0 | 4.0 | 0.00 | 0.22 | 0.22 | 60 | 1008.0 |
| 20260903234619 | 56 | 166 | 6.0 | 7.0 | 0.00 | 0.22 | 0.22 | 58 | 1008.0 |
| 20260903234115 | 56 | 200 | 14.0 | 15.0 | 0.00 | 0.22 | 0.22 | 59 | 1007.7 |
| 20260903233611 | 56 | 153 | 3.0 | 3.0 | 0.00 | 0.22 | 0.22 | 62 | 1007.8 |
| 20260903233106 | 56 | 176 | 5.0 | 8.0 | 0.00 | 0.22 | 0.22 | 63 | 1007.8 |
| 20260903232601 | 55 | 147 | 4.0 | 7.0 | 0.00 | 0.22 | 0.22 | 65 | 1007.8 |
| 20260903232057 | 56 | 164 | 4.0 | 7.0 | 0.00 | 0.22 | 0.22 | 68 | 1007.8 |
| 20260903231551 | 56 | 120 | 6.0 | 7.0 | 0.00 | 0.22 | 0.22 | 66 | 1007.5 |
| 20260903231045 | 57 | 106 | 3.0 | 6.0 | 0.00 | 0.22 | 0.22 | 64 | 1007.4 |
| 20260903230542 | 57 | 159 | 4.0 | 4.0 | 0.00 | 0.22 | 0.22 | 60 | 1007.8 |
| 20260903230040 | 59 | 162 | 3.0 | 3.0 | 0.00 | 0.22 | 0.22 | 59 | 1007.7 |
| 20260903225538 | 59 | 142 | 1.0 | 3.0 | 0.00 | 0.22 | 0.22 | 59 | 1007.8 |
| 20260903225034 | 60 | 169 | 2.0 | 2.0 | 0.00 | 0.22 | 0.22 | 68 | 1007.8 |
| 20260903224530 | 59 | 168 | 0.0 | 1.0 | 0.00 | 0.22 | 0.22 | 72 | 1008.0 |
| 20260903224026 | 59 | 131 | 2.0 | 2.0 | 0.00 | 0.22 | 0.22 | 73 | 1007.9 |
| 20260903223525 | 59 | 134 | 2.0 | 2.0 | 0.00 | 0.22 | 0.22 | 73 | 1007.5 |
| 20260903223024 | 59 | 137 | 1.0 | 2.0 | 0.00 | 0.22 | 0.22 | 73 | 1007.8 |
| 20260903222519 | 60 | 169 | 0.0 | 0.0 | 0.00 | 0.22 | 0.22 | 71 | 1008.2 |
| 20260903222018 | 60 | 144 | 0.0 | 0.0 | 0.00 | 0.22 | 0.22 | 72 | 1008.1 |
| 20260903221514 | 60 | 144 | 1.0 | 1.0 | 0.00 | 0.22 | 0.22 | 70 | 1008.0 |
| 20260903221010 | 60 | 177 | 2.0 | 3.0 | 0.00 | 0.22 | 0.22 | 69 | 1007.9 |
| 20260903220504 | 60 | 152 | 0.0 | 1.0 | 0.00 | 0.22 | 0.22 | 69 | 1008.1 |
| 20260903220001 | 60 | 126 | 1.0 | 2.0 | 0.00 | 0.22 | 0.22 | 70 | 1007.8 |
| 20260903215459 | 60 | 145 | 1.0 | 1.0 | 0.00 | 0.22 | 0.22 | 69 | 1007.9 |
| 20260903214957 | 60 | 155 | 0.0 | 1.0 | 0.00 | 0.22 | 0.22 | 69 | 1007.7 |
| 20260903214452 | 60 | 151 | 0.0 | 0.0 | 0.00 | 0.22 | 0.22 | 71 | 1007.2 |
| 20260903213947 | 60 | 127 | 1.0 | 2.0 | 0.00 | 0.22 | 0.22 | 68 | 1007.3 |
| 20260903213443 | 61 | 120 | 0.0 | 0.0 | 0.00 | 0.22 | 0.22 | 63 | 1008.1 |
| 20260903212938 | 61 | 7 | 1.0 | 2.0 | 0.00 | 0.22 | 0.22 | 62 | 1008.1 |
| 20260903212434 | 61 | 117 | 0.0 | 0.0 | 0.00 | 0.22 | 0.22 | 63 | 1008.0 |
| 20260903211934 | 61 | 143 | 0.0 | 0.0 | 0.00 | 0.22 | 0.22 | 63 | 1008.0 |
| 20260903211429 | 61 | 137 | 0.0 | 0.0 | 0.00 | 0.22 | 0.22 | 63 | 1008.2 |
| 20260903210926 | 61 | 137 | 0.0 | 0.0 | 0.00 | 0.22 | 0.22 | 63 | 1008.2 |
| 20260903210425 | 61 | 147 | 1.0 | 1.0 | 0.00 | 0.22 | 0.22 | 66 | 1008.2 |
| 20260903205920 | 61 | 176 | 0.0 | 0.0 | 0.00 | 0.22 | 0.22 | 63 | 1008.0 |
| 20260903205420 | 60 | 142 | 0.0 | 0.0 | 0.00 | 0.22 | 0.22 | 64 | 1007.9 |
| 20260903204915 | 60 | 153 | 0.0 | 0.0 | 0.00 | 0.22 | 0.22 | 66 | 1007.9 |
| 20260903204411 | 60 | 145 | 0.0 | 0.0 | 0.00 | 0.22 | 0.22 | 66 | 1008.0 |
| 20260903203907 | 60 | 138 | 0.0 | 0.0 | 0.00 | 0.22 | 0.22 | 63 | 1008.1 |
| 20260903203402 | 60 | 158 | 0.0 | 0.0 | 0.00 | 0.22 | 0.22 | 62 | 1008.1 |
| 20260903202901 | 60 | 253 | 2.0 | 2.0 | 0.00 | 0.22 | 0.22 | 62 | 1007.9 |
| 20260903202358 | 60 | 259 | 2.0 | 2.0 | 0.00 | 0.22 | 0.22 | 61 | 1008.1 |
| 20260903201857 | 61 | 153 | 2.0 | 2.0 | 0.00 | 0.22 | 0.22 | 61 | 1008.0 |
| 20260903201353 | 60 | 195 | 1.0 | 2.0 | 0.00 | 0.22 | 0.22 | 63 | 1008.5 |
| 20260903200851 | 60 | 230 | 2.0 | 2.0 | 0.00 | 0.22 | 0.22 | 61 | 1008.4 |
| 20260903200347 | 60 | 144 | 0.0 | 0.0 | 0.00 | 0.22 | 0.22 | 60 | 1008.7 |
| 20260903195842 | 60 | 144 | 0.0 | 0.0 | 0.00 | 0.22 | 0.22 | 62 | 1008.6 |